Regional Weather Roundup
Issued by NWS Jackson, KY

Home | Current Version | Previous Version | Graphics & Text | Print | Product List | Glossary On
Versions: 1 2 3 4 5 6 7 8 9 10 11 12 13 14 15 16 17 18 19 20 21 22 23 24 25 26 27 28 29 30 31 32 33 34 35 36 37 38 39 40 41 42 43 44 45 46 47 48 49 50
000
ASUS43 KJKL 210410
RWRJKL

EAST KENTUCKY HOURLY WEATHER ROUNDUP
NATIONAL WEATHER SERVICE JACKSON KY
1200 AM EDT MON MAY 21 2018

NOTE: "FAIR" INDICATES FEW OR NO CLOUDS BELOW 12,000 FEET WITH
NO SIGNIFICANT WEATHER AND/OR OBSTRUCTIONS TO VISIBILITY.

* THESE REPORTS ARE NOT UNDER NWS QUALITY CONTROL AND MAY NOT
  REPORT WEATHER SUCH AS PRECIPITATION AND FOG.

KYZ079-080-083-085-087-088-110-112-115-119-120-210500
...EASTERN KENTUCKY...

CITY           SKY/WX    TMP DP  RH WIND       PRES   REMARKS
JACKSON          N/A     73  64  73 S3        30.14F
LONDON           N/A     70  67  90 CALM      30.15S
SOMERSET*        N/A     70  68  94 MISG      30.16S
MONTICELLO*      N/A     72  66  81 W13       30.18R
WILLIAMSBURG*    N/A     66  66 100 CALM      30.16F
MIDDLESBORO*     N/A     66  66  98 CALM      30.17S
HARLAN APT*      N/A     66  66  97 CALM      30.18S
PIKE CO APT*     N/A     73  67  81 S3        30.16S
BIG SANDY APT*   N/A     69  69 100 CALM      30.14S
MOREHEAD APT*    N/A     72  66  83 E3        30.14S
ASHLAND*         N/A     72  67  84 VRB5      30.11R
$$

KYZ035-036-041-042-044-050-067-078-099-210500
...CENTRAL KENTUCKY...

CITY           SKY/WX    TMP DP  RH WIND       PRES   REMARKS
MT STERLING*     N/A     68  66  94 SW3       30.14S
FLEMING/MASON*   N/A     69  64  86 CALM      30.13S
DANVILLE*        N/A     70  64  83 CALM      30.14S
LEXINGTON        N/A     75  65  70 S3        30.12S
FRANKFORT        N/A     73  66  78 CALM      30.10R
LOUISVILLE     CLOUDY    78  66  66 SW3       30.08S
LEBANON*         N/A     72  63  73 S7        30.13S
GLASGOW*       LGT RAIN  66  64  91 CALM      30.10F
BOWLING GREEN  CLOUDY    70  68  93 CALM      30.12F
$$

KYZ091>093-OHZ055-061-077-WVZ005-015-034-035-042-210500
...SOUTHERN OHIO/WEST VIRGINIA...

CITY           SKY/WX    TMP DP  RH WIND       PRES   REMARKS
COVINGTON        N/A     68  63  84 S5        30.10F
COLUMBUS       MOCLDY    66  58  75 NE5       30.13S
DAYTON         CLOUDY    64  62  93 NE6       30.15R
WILMINGTON       N/A     65  64  97 NE3       30.12S
HUNTINGTON       N/A     70  66  87 CALM      30.10F
CHARLESTON       N/A     69  68  96 CALM      30.11S
PINEVILLE*       N/A     65  64  95 MISG      30.22S FOG
BECKLEY          N/A     65  61  87 CALM      30.20S
BLUEFIELD        N/A     66  62  87 W5        30.23S
LOGAN CO APT*    N/A     70  68  94 CALM      30.15F
$$

VAZ002-007-008-TNZ017-027-036-066-071-210500
...SOUTHWEST VIRGINIA/EAST TENNESSEE...

CITY           SKY/WX    TMP DP  RH WIND       PRES   REMARKS
WISE*            N/A     66  61  82 CALM      30.24S
JONESVILLE*      N/A     66  66 100 CALM      30.20R
ABINGDON*        N/A     70  69  96 CALM      30.20S
BRISTOL        MOCLDY    69  68  96 CALM      30.17S
MORRISTOWN*    CLEAR     72  68  88 CALM      30.16R
SEVIERVILLE*   CLEAR     72  70  94 CALM      30.15S
KNOXVILLE      MOCLDY    73  69  87 SW8       30.14R
LAFOLLETTE*    CLEAR     66  64  94 CALM      30.19S
OAK RIDGE        N/A     73  70  90 CALM      30.16R
CROSSVILLE       N/A     67  65  93 CALM      30.21S
NASHVILLE      CLOUDY    69  66  90 CALM      30.15F
$$

...KEY TO REMARKS...
VSB - VISIBILITY IN MILES
WCI - WIND CHILL INDEX
HX  - HEAT INDEX

$$



USA.gov is the U.S. government's official web portal to all federal, state and local government web resources and services.